Flag for China Weather past 2 weeks in Zhengzhou, Henan, China

Now
43 °F

Overcast.


Feels Like: 41 °F
Forecast: 47 / 66 °F
Wind: 3 mph from North

Location: Zhengzhou Airport

Current Time: Apr 2, 2015 at 10:21:22 AM

Latest Report: Apr 2, 2015 at 10:00 AM


Visibility: 3 mi

Pressure: 29.68 "Hg

Humidity: 76%

Dew point: 36 °F

Location of ZhengzhouLocation

Historic Weather in Zhengzhou — Graph

°F

Zhengzhou temperature yesterday

Maximum temperature yesterday: 48 °F (at 12:00 AM)
Minimum temperature yesterday: 39 °F (at 6:00 PM)
Average temperature yesterday: 43 °F

Past Weeks' High & Low Weather Summary

 TemperatureHumidityPressure
High79 °F (Mar 28, 1:00 PM)100% (Mar 20, 6:00 AM)30.48 "Hg (Mar 20, 6:00 AM)
Low37 °F (Mar 27, 6:00 AM)8% (Mar 21, 4:00 PM)29.62 "Hg (Apr 2, 5:00 AM)
Average55 °F66%30.11 "Hg
* Reported Mar 18 9:00 AM — Apr 2 9:00 AM, Zhengzhou, Weather by CustomWeather, © 2015

Note: Actual official high and low records may vary slightly from our data, if they occured in-between our weather recording intervals... More about our weather records

Advertising

Zhengzhou weather history for previous 24 hours

 ConditionsComfort  
Time TempWeatherWind HumidityBarometerVisibility
9:00 AM
Thu, Apr 2
41 °FFog.6 mph81%29.68 "Hg3 mi
8:00 AM41 °FFog.8 mph81%29.65 "Hg2 mi
7:00 AM39 °FFog.10 mph87%29.65 "Hg2 mi
6:00 AM39 °FFog.8 mph87%29.65 "Hg3 mi
5:00 AM39 °FFog.13 mph87%29.62 "Hg3 mi
4:00 AM39 °FLight rain. Fog.13 mph87%29.65 "Hg2 mi
3:00 AM39 °FLight rain. Fog.13 mph87%29.68 "Hg3 mi
2:00 AM39 °FLight rain. Mostly cloudy.13 mph87%29.68 "Hg4 mi
1:00 AM39 °FThunderstorms. Fog.13 mph87%29.74 "Hg2 mi
12:00 AM39 °FThunderstorms. Fog.15 mph87%29.77 "Hg2 mi
11:00 PM
Wed, Apr 1
39 °FThunderstorms. Fog.17 mph87%29.77 "Hg2 mi
10:00 PM39 °FThunderstorms. Fog.17 mph87%29.83 "Hg2 mi
9:00 PM39 °FThunderstorms. Fog.17 mph93%29.80 "Hg2 mi
8:00 PM39 °FThunderstorms. Fog.13 mph93%29.80 "Hg2 mi
7:00 PM39 °FThunderstorms. Fog.20 mph93%29.80 "Hg2 mi
6:00 PM39 °FLight rain. Fog.17 mph93%29.80 "Hg2 mi
5:00 PM41 °FLight rain. Fog.17 mph87%29.80 "Hg1 mi
4:00 PM41 °FLight rain. Fog.20 mph87%29.83 "Hg1 mi
3:00 PM41 °FLight rain. Fog.20 mph87%29.86 "Hg1 mi
2:00 PM41 °FLight rain. Fog.20 mph87%29.92 "Hg1 mi
1:00 PM41 °FLight rain. Fog.17 mph87%29.95 "Hg2 mi
12:00 PM43 °FLight rain. Fog.17 mph81%29.98 "Hg3 mi
11:00 AM41 °FLight rain. Fog.20 mph87%30.01 "Hg2 mi
10:00 AM43 °FRain. Fog.20 mph81%30.01 "Hg2 mi
Weather by CustomWeather, © 2015

See weather overviewHow to use our weather pages